Weather History for TJNR - August, 2013

Change the Weather History Date:

Wednesday, August 7, 2013

  Actual Average (TJSJ) Record (TJSJ)
Temperature  
Mean Temperature 81 °F 84 °F  
Max Temperature 87 °F 89 °F 92 °F (1995)
Min Temperature 75 °F 78 °F 69 °F (1913)
Degree Days  
Heating Degree Days 0 0  
Month to date heating degree days 0  
Since 1 June heating degree days 0  
Since 1 July heating degree days 0  
Cooling Degree Days 16 19  
Month to date cooling degree days 133  
Year to date cooling degree days 3417  
Since 1 June cooling degree days 1252  
Growing Degree Days 31 (Base 50)    
Moisture  
Dew Point 76 °F    
Average Humidity 87    
Maximum Humidity 100    
Minimum Humidity 72    
Precipitation  
Precipitation 0.74 in 0.15 in 2.09 in (1968)
Month to date precipitation 1.04  
Year to date precipitation 29.20  
Sea Level Pressure  
Sea Level Pressure 29.98 in    
Wind  
Wind Speed 5 mph (ENE)    
Max Wind Speed 10 mph    
Max Gust Speed 20 mph    
Visibility 8 miles    
Events Rain    
T = Trace of Precipitation, MM = Missing Value Source: NWS Daily Summary

Daily Weather History Graph

Daily Weather History Graph

Search for Another Location

Airport or City:

Trip Planner

Search our weather history database for the weather conditions in past years. The results will help you decide how hot, cold, wet, or windy it might be!

Date:

Astronomy

Aug. 07, 2013 Rise Set
Actual Time 6:02 AM AST 6:53 PM AST
Civil Twilight 5:39 AM AST 7:16 PM AST
Nautical Twilight 5:12 AM AST 7:43 PM AST
Astronomical Twilight 4:45 AM AST 8:11 PM AST
Moon 6:32 AM AST (8/7) 7:18 PM AST (8/7)
Length of Visible Light 13h 37m
Length of Day
12h 51m
New Moon, 1% of the Moon is Illuminated
Aug 7
New Moon
Aug 14
First Quarter
Aug 20
Full
Aug 28
Last Quarter
Sep 5
New

Hourly Weather History & Observations

Time (AST) Temp. Heat Index Dew Point Humidity Pressure Visibility Wind Dir Wind Speed Gust Speed Precip Events Conditions
12:53 AM 81.0 °F 87.3 °F 75.9 °F 85% 29.99 in 10.0 mi ESE 3.5 mph - N/A   Clear
1:53 AM 80.1 °F 85.4 °F 75.9 °F 87% 29.97 in 10.0 mi SE 3.5 mph - N/A   Mostly Cloudy
2:53 AM 77.0 °F - 73.9 °F 90% 29.97 in 3.0 mi East 6.9 mph 19.6 mph 0.03 in Rain Rain
3:53 AM 77.0 °F - 75.0 °F 94% 29.97 in 10.0 mi SW 4.6 mph - 0.01 in   Scattered Clouds
4:10 AM 77.0 °F - 73.4 °F 89% 29.97 in 3.0 mi WNW 4.6 mph - 0.05 in Rain Heavy Rain
4:24 AM 75.2 °F - 73.4 °F 94% 29.97 in 10.0 mi WNW 3.5 mph - 0.05 in   Scattered Clouds
4:53 AM 75.9 °F - 73.9 °F 94% 29.97 in 10.0 mi NW 5.8 mph - 0.05 in   Clear
5:30 AM 77.0 °F - 75.2 °F 94% 29.97 in 4.0 mi North 5.8 mph - 0.04 in Rain Rain
5:37 AM 77.0 °F - 75.2 °F 94% 29.97 in 3.0 mi NW 4.6 mph - 0.06 in Rain Rain
5:53 AM 77.0 °F - 75.0 °F 94% 29.98 in 10.0 mi Calm Calm - 0.06 in   Mostly Cloudy
6:02 AM 77.0 °F - 75.2 °F 94% 29.99 in 1.5 mi ESE 9.2 mph - 0.21 in Rain Heavy Rain
6:09 AM 75.2 °F - 75.2 °F 100% 29.99 in 1.0 mi Calm Calm - 0.32 in Rain Light Rain
6:13 AM 75.2 °F - 75.2 °F 100% 29.99 in 2.5 mi East 3.5 mph - 0.32 in Rain Light Rain
6:19 AM 75.2 °F - 75.2 °F 100% 29.99 in 1.2 mi East 3.5 mph - 0.45 in Rain Rain
6:31 AM 75.2 °F - 75.2 °F 100% 29.99 in 3.0 mi NE 3.5 mph - 0.48 in Rain Light Rain
6:53 AM 77.0 °F - 75.9 °F 96% 30.00 in 6.0 mi NW 4.6 mph - 0.48 in Rain Light Rain
7:04 AM 78.8 °F - 75.2 °F 89% 29.99 in 10.0 mi NW 4.6 mph - 0.00 in   Scattered Clouds
7:35 AM 80.6 °F 87.1 °F 77.0 °F 89% 30.00 in 10.0 mi North 3.5 mph - 0.00 in   Mostly Cloudy
7:53 AM 79.0 °F - 75.9 °F 90% 30.01 in 7.0 mi ESE 5.8 mph - 0.00 in Rain Light Rain
8:11 AM 78.8 °F - 77.0 °F 94% 30.00 in 8.0 mi Calm Calm - 0.00 in   Overcast
8:53 AM 84.0 °F 93.7 °F 77.0 °F 79% 30.01 in 10.0 mi NE 5.8 mph - 0.00 in   Mostly Cloudy
9:53 AM 84.9 °F 96.6 °F 78.1 °F 80% 30.01 in 10.0 mi East 8.1 mph - N/A   Partly Cloudy
10:15 AM 82.4 °F 89.5 °F 75.2 °F 79% 30.00 in 9.0 mi ENE 9.2 mph 17.3 mph 0.01 in   Mostly Cloudy
10:22 AM 82.4 °F 90.9 °F 77.0 °F 84% 30.00 in 8.0 mi NE 8.1 mph - 0.01 in Rain Light Rain
10:53 AM 86.0 °F 98.3 °F 78.1 °F 77% 30.00 in 10.0 mi ENE 8.1 mph - 0.01 in   Partly Cloudy
11:53 AM 86.0 °F 96.0 °F 75.9 °F 72% 29.99 in 10.0 mi NE 9.2 mph - N/A   Clear
12:53 PM 87.1 °F 98.8 °F 77.0 °F 72% 29.98 in 10.0 mi East 9.2 mph - N/A   Partly Cloudy
1:53 PM 86.0 °F 96.9 °F 77.0 °F 74% 29.96 in 10.0 mi ENE 9.2 mph - N/A   Mostly Cloudy
2:53 PM 86.0 °F 96.0 °F 75.9 °F 72% 29.94 in 10.0 mi ENE 9.2 mph - N/A   Clear
3:53 PM 86.0 °F 96.9 °F 77.0 °F 74% 29.94 in 10.0 mi ENE 10.4 mph - N/A   Partly Cloudy
4:53 PM 84.0 °F 91.9 °F 75.0 °F 74% 29.93 in 10.0 mi East 9.2 mph - N/A   Partly Cloudy
5:53 PM 84.9 °F 95.3 °F 77.0 °F 77% 29.93 in 10.0 mi ENE 6.9 mph - N/A   Clear
6:53 PM 84.0 °F 91.9 °F 75.0 °F 74% 29.94 in 10.0 mi ENE 5.8 mph - N/A   Clear
7:53 PM 82.9 °F 91.8 °F 77.0 °F 82% 29.96 in 10.0 mi ENE 5.8 mph - N/A   Scattered Clouds
8:53 PM 80.1 °F 85.4 °F 75.9 °F 87% 29.96 in 6.0 mi ESE 5.8 mph - 0.04 in Rain Light Rain
9:53 PM 77.0 °F - 77.0 °F 100% 29.98 in 10.0 mi WNW 3.5 mph - 0.06 in   Mostly Cloudy
10:28 PM 77.0 °F - 77.0 °F 100% 29.98 in 10.0 mi Calm Calm - N/A   Mostly Cloudy
10:53 PM 81.0 °F 88.6 °F 78.1 °F 91% 29.98 in 10.0 mi East 6.9 mph - N/A   Mostly Cloudy
11:25 PM 82.4 °F 92.4 °F 78.8 °F 89% 29.97 in 10.0 mi East 4.6 mph - N/A   Mostly Cloudy
11:53 PM 82.0 °F 90.2 °F 77.0 °F 85% 29.96 in 9.0 mi East 8.1 mph - N/A   Mostly Cloudy